Pompano Beach, FL

3:30 AM EDT on April 28, 2017 (GMT -0400)
Pompano Beach

Weather History for KPMP - December, 2013

Change the Weather History Date:

Sunday, December 8, 2013

  Actual Average Record
Temperature  
Mean Temperature 76 °F -  
Max Temperature 81 °F 80 °F 87 °F (1978)
Min Temperature 71 °F 65 °F 39 °F (2010)
Cooling Degree Days 11    
Growing Degree Days 26 (Base 50)    
Moisture  
Dew Point 68 °F    
Average Humidity 77    
Maximum Humidity 94    
Minimum Humidity 61    
Precipitation  
Precipitation 0.14 in - - ()
Sea Level Pressure  
Sea Level Pressure 30.17 in    
Wind  
Wind Speed 12 mph (ESE)    
Max Wind Speed 21 mph    
Max Gust Speed 26 mph    
Visibility 9 miles    
Events Rain    
Averages and records for this station are not official NWS values.
T = Trace of Precipitation, MM = Missing Value Source: NWS Daily Summary

Daily Weather History Graph

Daily Weather History Graph

Search for Another Location

Airport or City:

Trip Planner

Search our weather history database for the weather conditions in past years. The results will help you decide how hot, cold, wet, or windy it might be!

Date:

Astronomy

Dec. 08, 2013 Rise Set
Actual Time 6:56 AM EST 5:28 PM EST
Civil Twilight 6:30 AM EST 5:54 PM EST
Nautical Twilight 6:02 AM EST 6:22 PM EST
Astronomical Twilight 5:33 AM EST 6:50 PM EST
Moon 11:41 AM EST (12/8) 11:47 PM EST (12/8)
Length of Visible Light 11h 23m
Length of Day
10h 32m
Waxing Crescent, 40% of the Moon is Illuminated
Dec 8
Waxing Crescent
Dec 9
First Quarter
Dec 17
Full
Dec 25
Last Quarter
Jan 1
New

Hourly Weather History & Observations

Time (EST) Temp. Heat Index Dew Point Humidity Pressure Visibility Wind Dir Wind Speed Gust Speed Precip Events Conditions
12:53 AM 75.0 °F - 69.1 °F 82% 30.18 in 10.0 mi ESE 15.0 mph 26.5 mph N/A   Overcast
1:12 AM 73.4 °F - 69.8 °F 88% 30.18 in 7.0 mi East 13.8 mph 26.5 mph 0.00 in Rain Light Rain
1:38 AM 71.6 °F - 69.8 °F 94% 30.18 in 3.0 mi East 20.7 mph 25.3 mph 0.00 in Rain Light Rain
1:53 AM 71.1 °F - 68.0 °F 90% 30.18 in 4.0 mi ESE 6.9 mph - 0.01 in Rain Light Rain
2:15 AM 73.4 °F - 69.8 °F 88% 30.17 in 6.0 mi East 10.4 mph - 0.00 in Rain Light Rain
2:44 AM 71.6 °F - 69.8 °F 94% 30.16 in 1.8 mi East 10.4 mph - 0.06 in Rain Heavy Rain
2:50 AM 71.6 °F - 69.8 °F 94% 30.16 in 2.0 mi East 10.4 mph - 0.08 in Rain Rain
2:53 AM 72.0 °F - 70.0 °F 93% 30.17 in 2.0 mi ESE 11.5 mph - 0.10 in Rain Rain
3:11 AM 71.6 °F - 69.8 °F 94% 30.16 in 7.0 mi East 10.4 mph - 0.03 in Rain Light Rain
3:53 AM 73.0 °F - 71.1 °F 93% 30.15 in 10.0 mi East 5.8 mph - 0.03 in   Overcast
4:53 AM 75.0 °F - 70.0 °F 84% 30.15 in 10.0 mi ESE 11.5 mph - N/A   Mostly Cloudy
5:53 AM 75.0 °F - 66.9 °F 76% 30.17 in 10.0 mi ESE 11.5 mph - N/A   Clear
6:53 AM 75.0 °F - 64.9 °F 71% 30.18 in 10.0 mi ESE 8.1 mph - N/A   Clear
7:53 AM 75.9 °F - 66.9 °F 74% 30.20 in 10.0 mi ESE 9.2 mph - N/A   Partly Cloudy
8:53 AM 78.1 °F - 68.0 °F 71% 30.22 in 10.0 mi ESE 10.4 mph - N/A   Overcast
9:53 AM 80.1 °F 82.7 °F 68.0 °F 67% 30.22 in 10.0 mi ESE 10.4 mph - N/A   Mostly Cloudy
10:53 AM 80.1 °F 82.7 °F 68.0 °F 67% 30.21 in 10.0 mi ESE 10.4 mph - N/A   Mostly Cloudy
11:53 AM 81.0 °F 83.8 °F 68.0 °F 65% 30.19 in 10.0 mi ESE 13.8 mph - N/A   Scattered Clouds
12:00 PM 80.6 °F 83.2 °F 68.0 °F 65% 30.18 in 10.0 mi ESE 11.5 mph 18.4 mph N/A   Mostly Cloudy
12:23 PM 80.6 °F 82.7 °F 66.2 °F 61% 30.17 in 10.0 mi ESE 13.8 mph - N/A   Scattered Clouds
12:53 PM 81.0 °F 83.8 °F 68.0 °F 65% 30.17 in 10.0 mi ESE 13.8 mph - N/A   Overcast
1:53 PM 81.0 °F 83.3 °F 66.9 °F 62% 30.15 in 10.0 mi ESE 13.8 mph - N/A   Unknown
2:53 PM 79.0 °F - 66.9 °F 66% 30.14 in 10.0 mi SE 12.7 mph - N/A   Unknown
3:53 PM 80.1 °F 82.1 °F 66.0 °F 62% 30.14 in 10.0 mi SE 13.8 mph - N/A   Partly Cloudy
4:53 PM 78.1 °F - 66.0 °F 66% 30.14 in 10.0 mi ESE 11.5 mph - N/A   Partly Cloudy
5:53 PM 77.0 °F - 66.9 °F 71% 30.14 in 10.0 mi SE 10.4 mph - N/A   Partly Cloudy
6:53 PM 77.0 °F - 66.9 °F 71% 30.16 in 10.0 mi ESE 10.4 mph - N/A   Overcast
7:53 PM 78.1 °F - 69.1 °F 74% 30.17 in 10.0 mi ESE 11.5 mph - N/A   Overcast
8:53 PM 78.1 °F - 69.1 °F 74% 30.18 in 10.0 mi ESE 13.8 mph - N/A   Overcast
9:53 PM 77.0 °F - 70.0 °F 79% 30.18 in 10.0 mi ESE 16.1 mph 20.7 mph N/A   Overcast
10:05 PM 77.0 °F - 69.8 °F 78% 30.18 in 10.0 mi ESE 9.2 mph - N/A   Overcast
10:53 PM 78.1 °F - 69.1 °F 74% 30.18 in 10.0 mi ESE 16.1 mph 21.9 mph N/A   Overcast
11:53 PM 78.1 °F - 69.1 °F 74% 30.17 in 10.0 mi SE 16.1 mph 21.9 mph N/A   Overcast